Fes-Sais, Morocco

9:56 PM WET on February 14, 2016 (GMT +0000)
Saiss

Weather History for GMFF - July, 2013

Change the Weather History Date:

Monday, July 22, 2013

  Actual Average Record
Temperature  
Mean Temperature 76 °F -  
Max Temperature 93 °F 91 °F 109 °F (2008)
Min Temperature 60 °F 63 °F 57 °F (2007)
Cooling Degree Days 12    
Growing Degree Days 26 (Base 50)    
Moisture  
Dew Point 58 °F    
Average Humidity 52    
Maximum Humidity 74    
Minimum Humidity 25    
Precipitation  
Precipitation 0.00 in 0.00 in - ()
Sea Level Pressure  
Sea Level Pressure 30.02 in    
Wind  
Wind Speed 3 mph ()    
Max Wind Speed 10 mph    
Max Gust Speed -    
Visibility 6.2 miles    
Events      
Averages and records for this station are not official NWS values.
T = Trace of Precipitation, MM = Missing Value Source: Averaged Metar Reports

Daily Weather History Graph

Daily Weather History Graph

Search for Another Location

Airport or City:

Trip Planner

Search our weather history database for the weather conditions in past years. The results will help you decide how hot, cold, wet, or windy it might be!

Date:

Astronomy

Jul. 22, 2013 Rise Set
Actual Time 5:24 AM WET 7:27 PM WET
Civil Twilight 4:56 AM WET 7:55 PM WET
Nautical Twilight 4:22 AM WET 8:29 PM WET
Astronomical Twilight 3:45 AM WET 9:06 PM WET
Moon 7:07 PM WET (7/22) 5:01 AM WET (7/22)
Length of Visible Light 14h 59m
Length of Day
14h 03m
Full, 100% of the Moon is Illuminated
Jul 22
Full
Jul 22
Full
Jul 29
Last Quarter
Aug 6
New
Aug 14
First Quarter

Hourly Weather History & Observations

Time (WET) Temp. Heat Index Dew Point Humidity Pressure Visibility Wind Dir Wind Speed Gust Speed Precip Events Conditions
12:00 AM 67 °F - 53 °F 50% 30.06 in 6 mi SSE 1.2 mph - -  
12:00 AM 66.2 °F - 51.8 °F 60% 30.09 in - Calm Calm - N/A   Clear
1:00 AM 64.4 °F - 51.8 °F 64% 30.06 in - Calm Calm - N/A   Clear
2:00 AM 64.4 °F - 51.8 °F 64% 30.06 in - Calm Calm - N/A   Clear
3:00 AM 62 °F - 51 °F 57% 30.03 in 4 mi South 1.2 mph - -  
3:00 AM 62.6 °F - 51.8 °F 68% 30.04 in - Calm Calm - N/A   Clear
4:00 AM 62.6 °F - 53.6 °F 72% 30.04 in - Variable 2.3 mph - N/A   Clear
5:00 AM 60.8 °F - 51.8 °F 72% 30.04 in - Variable 2.3 mph - N/A   Clear
6:00 AM 62 °F - 53 °F 63% 30.01 in 4 mi South 2.3 mph - -  
6:00 AM 62.6 °F - 53.6 °F 72% 30.04 in - Variable 2.3 mph - N/A   Clear
7:00 AM 69.8 °F - 59.0 °F 68% 30.04 in - Variable 4.6 mph - N/A   Clear
8:00 AM 73.4 °F - 59.0 °F 61% 30.04 in - Variable 3.5 mph - N/A   Clear
9:00 AM 74 °F - 60 °F 52% 29.98 in 6 mi North 3.5 mph - -  
9:00 AM 78.8 °F - 62.6 °F 57% 30.04 in - Calm Calm - N/A   Clear
10:00 AM 82.4 °F 83.4 °F 62.6 °F 51% 30.04 in - Variable 3.5 mph - N/A   Clear
11:00 AM 86.0 °F 86.6 °F 62.6 °F 45% 30.04 in - Variable 4.6 mph - N/A   Clear
12:00 PM 86 °F - 62 °F 34% 29.94 in 12 mi North 6.9 mph - -  
12:00 PM 89.6 °F 90.1 °F 62.6 °F 40% 30.04 in - NW 4.6 mph - N/A   Clear
1:00 PM 89.6 °F 89.5 °F 60.8 °F 38% 30.04 in - NNW 6.9 mph - N/A   Clear
2:00 PM 91.4 °F 91.4 °F 60.8 °F 36% 30.01 in 6.2 mi Variable 8.1 mph - N/A   Partly Cloudy
3:00 PM 92 °F - 60 °F 25% 29.88 in 6 mi NW 6.9 mph - -   Scattered Clouds
3:00 PM 91.4 °F 90.7 °F 59.0 °F 34% 30.01 in 6.2 mi NW 6.9 mph - N/A   Partly Cloudy
4:00 PM 91.4 °F 91.4 °F 60.8 °F 36% 30.01 in 6.2 mi North 6.9 mph - N/A   Partly Cloudy
5:00 PM 91.4 °F 89.9 °F 57.2 °F 31% 30.01 in 6.2 mi NW 8.1 mph - N/A   Partly Cloudy
6:00 PM 87 °F - 57 °F 26% 29.90 in 6 mi NW 6.9 mph - -   Scattered Clouds
6:00 PM 87.8 °F 86.5 °F 57.2 °F 35% 30.01 in 6.2 mi NW 6.9 mph - N/A   Scattered Clouds
7:00 PM 84.2 °F 83.8 °F 59.0 °F 42% 30.01 in 6.2 mi WNW 4.6 mph - N/A   Scattered Clouds
8:00 PM 78.8 °F - 69.8 °F 74% 30.04 in 6.2 mi WNW 9.2 mph - N/A   Scattered Clouds
9:00 PM 77.0 °F - 60.8 °F 57% 30.04 in 6.2 mi West 10.4 mph - N/A   Scattered Clouds
10:00 PM 75.2 °F - 60.8 °F 61% 30.06 in 6.2 mi West 5.8 mph - N/A   Scattered Clouds
11:00 PM 75.2 °F - 60.8 °F 61% 30.06 in 6.2 mi West 5.8 mph - N/A   Scattered Clouds